Location: Frizzleburg
(41.0764°N, 80.4548°W)
Time: 05:28:35
(UTC+00:00)

SKYMED 2 - Pass Details

Date: 17 November 2019
Orbit: 621 x 623 km, 97.9° (Epoch: 14 December)

Event Time Altitude Azimuth Distance (km) Brightness Sun altitude
Rises 10:50:29 0° 175° (S) 2,888 7.2 -15.3°
Reaches altitude 10° 10:52:41 10° 180° (S) 1,987 6.3 -14.9°
Maximum altitude 10:56:57 58° 259° (W) 726 3.6 -14.1°
Drops below altitude 10° 11:01:15 10° 339° (NNW) 2,002 5.8 -13.3°
Sets 11:03:29 0° 344° (NNW) 2,912 6.7 -12.9°
